Regional Weather Roundup
Issued by NWS Upton, NY

Current Version | Previous Version | Text Only | Print | Product List | Glossary On
Versions: 1 2 3 4 5 6 7 8 9 10 11 12 13 14 15 16 17 18 19 20 21 22 23 24 25 26 27 28 29 30 31 32 33 34 35 36 37 38 39 40 41 42 43 44 45 46 47 48 49 50
000
ASUS41 KOKX 050404
RWROKX

REGIONAL WEATHER ROUNDUP
NATIONAL WEATHER SERVICE NEW YORK NY
1200 AM EDT THU MAY 05 2016

NOTE: "FAIR" INDICATES FEW OR NO CLOUDS BELOW 12,000 FEET WITH NO
SIGNIFICANT WEATHER AND/OR OBSTRUCTIONS TO VISIBILITY.

NYZ071-072-176-178-NJZ106-104-050500-
NEW YORK CITY METRO AREA


CITY           SKY/WX    TMP DP  RH WIND       PRES   REMARKS
CENTRAL PARK   CLOUDY    49  41  74 NE10G21   29.76F
LAGUARDIA APRT CLOUDY    50  45  83 NE10G20   29.74S
KENNEDY INTL   CLOUDY    49  43  80 NE13      29.75S
NEWARK/LIBERTY CLOUDY    50  43  77 NE14      29.74S
BRNX BOT. GARD   N/A     48  41  76 N5        29.75F
TETERBORO      CLOUDY    49  42  77 NE6       29.74S
$$

NYZ177-179-078>081-050500-
LONG ISLAND NEW YORK

CITY           SKY/WX    TMP DP  RH WIND       PRES   REMARKS
FARMINGDALE    CLOUDY    47  43  86 NE12      29.74S
ISLIP          CLOUDY    46  42  86 N13       29.73S
SHIRLEY        CLOUDY    47  43  86 N8        29.74S
RIVERHEAD        N/A     46  43  87 N10       29.74R
WESTHAMPTON    CLOUDY    42  42 100 N10       29.75
EAST HAMPTON   CLOUDY    45  42  89 N8G20     29.73R
MONTAUK POINT    N/A     46  43  89 NE12G20   29.74R
$$

NYZ052-065-067-050500-
HUDSON VALLEY

CITY           SKY/WX    TMP DP  RH WIND       PRES   REMARKS
WHITE PLAINS   CLOUDY    47  42  83 NE8       29.73F
NEWBURGH       MOCLDY    46  45  93 NE9       29.77F
MONTGOMERY     CLOUDY    47  43  86 NE8       29.76S
POUGHKEEPSIE   CLOUDY    49  43  80 N3        29.76F
ALBANY         CLOUDY    48  43  82 CALM      29.80S
$$

NJZ001-105-106-008-010-013-015-019>022-104-050500-
NEW JERSEY

CITY           SKY/WX    TMP DP  RH WIND       PRES   REMARKS
NEWARK/LIBERTY CLOUDY    50  43  77 NE14      29.74S
TETERBORO      CLOUDY    49  42  77 NE6       29.74S
CALDWELL       CLOUDY    49  30  48 NE5       29.75S
MORRISTOWN     CLOUDY    48  45  87 NE7       29.74S
SOMERVILLE     CLOUDY    50  44  80 CALM      29.72F
SUSSEX         MOCLDY    47  42  83 NE8       29.75F
ANDOVER          N/A     47  45  93 VRB5      29.74F
TRENTON        CLOUDY    49  46  90 NE6       29.73R FOG
MILLVILLE      CLOUDY    49  45  86 NE10      29.71S
ATLANTIC CITY  CLOUDY    49  46  90 NE9       29.72R
WRIGHTSTOWN    CLOUDY    49  46  90 NE7       29.70S
TOMS RIVER     CLOUDY    48  43  81 NE13      29.73S
BELMAR         CLOUDY    48  44  86 NE12      29.74R
$$

PAZ047>061-062-071-050500-
EASTERN PENNSYLVANIA

CITY           SKY/WX    TMP DP  RH WIND       PRES   REMARKS
PHILADELPHIA   CLOUDY    51  46  83 E9        29.73S
ALLENTOWN      CLOUDY    50  46  86 NE9       29.73S
SCRANTON       CLOUDY    49  44  83 NE3       29.73S
$$

CTZ002-004>006-009-010-012-RIZ004-006-007-MAZ004-011-015-050500-
SOUTHERN NEW ENGLAND
 IN CT

CITY           SKY/WX    TMP DP  RH WIND       PRES   REMARKS
BRADLEY INTL   CLOUDY    45  40  82 NE13      29.78F
HARTFORD       CLOUDY    47  41  80 N12       29.78S
DANBURY        CLOUDY    46  41  82 NE8       29.76F
WTRBRY/OXFORD    N/A     45  37  76 NE15G24   29.76S
BRIDGEPORT     CLOUDY    48  43  82 NE14      29.75S
MERIDEN        CLOUDY    46  42  86 N8        29.76F
NEW HAVEN      CLOUDY    46  42  86 N15       29.75S
CHESTER        CLOUDY    45  41  87 N8        29.75R
GROTON         CLOUDY    45  45 100 N9        29.73R
WILLIMANTIC    CLOUDY    46  40  79 N7        29.77R

 IN RI

CITY           SKY/WX    TMP DP  RH WIND       PRES   REMARKS
PROVIDENCE     CLOUDY    45  42  89 NE16      29.76S
BLOCK ISLAND   CLOUDY    45  43  93 NE17G25   29.72R
WESTERLY       CLOUDY    46  41  82 N9G20     29.72F

 IN MA

CITY           SKY/WX    TMP DP  RH WIND       PRES   REMARKS
BOSTON         CLOUDY    44  42  93 NE15      29.80S
WORCESTER      CLOUDY    39  38  96 NE13G20   29.75F WCI  31
WESTFIELD      CLOUDY    45  41  86 N9        29.79F
PROVINCETOWN   LGT RAIN  44  43  96 NE17G30   29.74F
NANTUCKET      LGT RAIN  46  43  89 NE28G33   29.67F
$$

ANZ330-335-338-340-345-350-353-355-050500-
COASTAL MARINE OBSERVATIONS


STATION/POSITION TIME  SKY/WX   TEMP    WIND        PRES    VSBY  WAVE
                                AIR SEA DIR/SP/G                  HT/PER
                 (UTC)          (F)     (DEG/KT/KT) (MB)    (MI)  (FT/S)
NY HARB ENTRANCE 0250            49 50   40/ 19/ 23 1006.1          6/ 7
20S FIRE ISLAND  0250            47 48   30/ 19/ 21 1005.6          8/ 7
GREAT SOUTH BAY  0315            47 54   10/ 12/ 16   N/A
23 SSW MONTAUK P 0350            46 46   30/ 21/ 25 1005.3          7/ 6
15 E BARNEGAT LI 0322               50                N/A           7/ 7
HUDSON CANYON    0250            48 49              1004.2          9/ 7
KINGS POINT      0300               53              1006.8
EXECUTION ROCKS  NOT AVBL
CENTRAL LI SOUND 0300            47      10/ 12/ 14   N/A           2/ 3
EASTERN LI SOUND 0300            46 47   30/ 14/ 17   N/A
ROBBINS REEF     0306            50      40/ 14/ 20 1006.2
$$


>>>>>>>>>>>>>>>>>>>>>>>>>>>> KEY <<<<<<<<<<<<<<<<<<<<<<<<<<<
>                                                          <
>     SKY/WX - SKY CONDITION/PRESENT WEATHER               <
>     TMP    - TEMPERATURE IN FAHRENHEIT                   <
>     DP     - DEWPOINT IN FAHRENHEIT                      <
>     RH     - RELATIVE HUMIDITY IN PERCENT                <
>     WIND   - DIRECTION AND SPEED IN MPH                  <
>     PRES   - MEAN SEA LEVEL PRESSURE IN INCHES OF HG     <
>     WCI    - WIND CHILL INDEX                            <
>     VSB    - VISIBILITY IN MILES                         <
>     HX     - HEAT INDEX                                  <
>     TC     - TEMPERATURE IN CELSIUS                      <
>     VRB    - VARIABLE WIND DIRECTION                     <
>                                                          <
>>>>>>>>>>>>>>>>>>>>>>>>>>>> KEY <<<<<<<<<<<<<<<<<<<<<<<<<<<





USA.gov is the U.S. government's official web portal to all federal, state and local government web resources and services.